Regional Weather Roundup
Issued by NWS

Home | Current Version | Previous Version | Text Only | Print | Product List | Glossary Off
Versions: 1 2 3 4 5 6 7 8 9 10 11 12 13 14 15 16 17 18 19 20 21 22 23 24 25 26 27 28 29 30 31 32 33 34 35 36 37 38 39 40 41 42 43 44 45 46 47 48 49 50

000
ASUS43 KIND 102159
RWRIN

WEATHER ROUNDUP FOR INDIANA
NATIONAL WEATHER SERVICE INDIANAPOLIS IN
500 PM EST WED FEB 10 2016

NOTE: "FAIR" INDICATES FEW OR NO CLOUDS BELOW 12,000 FEET WITH NO
SIGNIFICANT WEATHER AND/OR OBSTRUCTIONS TO VISIBILITY.

* - STATION DOES NOT REPORT WEATHER SUCH AS PRECIPITATION OR FOG.

+ - STATION NOT QUALITY CONTROLLED BY THE NATIONAL WEATHER SERVICE.
    USE DATA WITH CAUTION...ESPECIALLY DEWPOINT AND RELATIVE
    HUMIDITY OBSERVATIONS.

INZ001>003-010>013-019-020-102300-
NORTHWEST INDIANA

CITY           SKY/WX    TMP DP  RH WIND       PRES   REMARKS
GARY /AIRPORT/ PTSUNNY   21   1  42 W14       30.04R WCI   8
RENSSELAER +   PTSUNNY   19   5  53 W8        30.04R WCI   9

$$

LMZ046-743>745-102300-
SOUTHERN LAKE MICHIGAN

STATION/POSITION TIME  TEMP    WIND        PRES    WAVE
                       AIR SEA DIR/SP/G            HT
                 (UTC) (F)     (DEG/KT/KT) (MB)    (FT)
BURNS HARBOR     2100   18     300/ 10/ 14 1016.9R
MICHIGAN CITY    2100   16     280/ 15/ 18   N/A

$$

INZ004-005-014>016-021>024-102300-
NORTH CENTRAL INDIANA

CITY           SKY/WX    TMP DP  RH WIND       PRES   REMARKS
ELKHART        LGT SNOW N/A N/A N/A W14G22    29.99R
GOSHEN         LGT SNOW  15   9  76 W21G26    29.98R WCI  -2
SOUTH BEND     LGT SNOW  14   9  80 W16       30.00R WCI  -2

$$

INZ006>009-017-018-025>027-102300-
NORTHEAST INDIANA

CITY           SKY/WX    TMP DP  RH WIND       PRES   REMARKS
ANGOLA *+      PTSUNNY   18  10  73 NW14      29.91R WCI   4
FORT WAYNE     LGT SNOW  20   9  62 W20       29.98R WCI   4

$$

INZ028-029-035-036-043>045-051>053-102300-
WEST CENTRAL INDIANA

CITY           SKY/WX    TMP DP  RH WIND       PRES   REMARKS
GREENCASTLE +  CLOUDY    18   0  45 W8        30.07R WCI   7
LAFAYETTE      CLOUDY    15   6  67 W12       30.07R WCI   2
TERRE HAUTE    CLOUDY    19   6  57 W10       30.10R WCI   7

$$

INZ030>032-037>040-046>048-054>057-064-065-102300-
CENTRAL INDIANA

CITY           SKY/WX    TMP DP  RH WIND       PRES   REMARKS
GREENWOOD *+   PTSUNNY   18   7  62 W13G20    30.06R WCI   4
INDIANAPOLIS   PTSUNNY   17   4  56 W16       30.05R WCI   2
-EAGLE CREEK   PTSUNNY   16   4  59 W8G21     30.05R WCI   5
KOKOMO *+      CLOUDY    16   5  62 W16       30.03R WCI   0
MT COMFORT *+  CLOUDY    16   5  62 W14       30.05R WCI   1
SHELBYVILLE    CLOUDY    18   6  59 W12       30.05R WCI   5

$$

INZ033-034-041-042-049-050-058-059-102300-
EAST CENTRAL INDIANA

CITY           SKY/WX    TMP DP  RH WIND       PRES   REMARKS
MUNCIE         CLOUDY    16   5  62 W15       30.02R WCI   1

$$

INZ060-061-067>069-081>083-085>088-102300-
SOUTHWEST INDIANA

CITY           SKY/WX    TMP DP  RH WIND       PRES   REMARKS
EVANSVILLE     CLOUDY    25   9  50 W10       30.14S WCI  15
HUNTINGBURG *+ CLOUDY    21   9  58 W15       30.13R WCI   8

$$

INZ062-063-066-070>080-084-089>092-102300-
SOUTH CENTRAL AND SOUTHEAST INDIANA

CITY           SKY/WX    TMP DP  RH WIND       PRES   REMARKS
BLOOMINGTON    MOSUNNY   18   4  54 W9        30.07R WCI   7
MADISON *+     MOSUNNY   21   5  49 SW14G20   30.08R WCI   8
SEYMOUR +      MOSUNNY   23   7  50 W16G22    30.08R WCI  10

$$




USA.gov is the U.S. government's official web portal to all federal, state and local government web resources and services.